This is the latest recevied weather packets stored in our database for station/object KD0MAC. If no packets are shown the sender has not sent any weather packets the latest 10 day(s).
| Time | Temp. | Humidity | Pressure | Rain* | Wind** | Luminosity | Snow |
|---|---|---|---|---|---|---|---|
| 1788472175 | 38.89° C | 21% | 1009.1 hPa | 0 mm | - | 365 W/m² | - |
| 1788471875 | 39.44° C | 20% | 1009.5 hPa | 0 mm | - | 377 W/m² | - |
| 1788471577 | 39.44° C | 20% | 1009.5 hPa | 0 mm | - | 389 W/m² | - |
| 1788471275 | 39.44° C | 19% | 1009.1 hPa | 0 mm | - | 400 W/m² | - |
| 1788470976 | 39.44° C | 21% | 1009.5 hPa | 0 mm | - | 411 W/m² | - |
| 1788470676 | 39.44° C | 19% | 1009.5 hPa | 0 mm | - | 421 W/m² | - |
| 1788470375 | 39.44° C | 21% | 1009.5 hPa | 0 mm | - | 430 W/m² | - |
| 1788470076 | 39.44° C | 21% | 1009.5 hPa | 0 mm | - | 440 W/m² | - |
| 1788470025 | 39.44° C | 21% | 1009.5 hPa | 0 mm | - | 440 W/m² | - |
| 1788469725 | 38.89° C | 20% | 1009.5 hPa | 0 mm | - | 449 W/m² | - |
| 1788469424 | 39.44° C | 19% | 1009.5 hPa | 0 mm | - | 459 W/m² | - |
| 1788469176 | 39.44° C | 20% | 1009.5 hPa | 0 mm | - | 467 W/m² | - |
| 1788468877 | 38.89° C | 22% | 1009.5 hPa | 0 mm | - | 475 W/m² | - |
| 1788468575 | 38.89° C | 24% | 1009.5 hPa | 0 mm | - | 485 W/m² | - |
| 1788468238 | 39.44° C | 20% | 1009.5 hPa | 0 mm | - | 494 W/m² | - |
| 1788467924 | 39.44° C | 22% | 1009.5 hPa | 0 mm | - | 505 W/m² | - |
| 1788467675 | 38.89° C | 22% | 1009.5 hPa | 0 mm | - | 513 W/m² | - |
| 1788467625 | 38.89° C | 22% | 1009.5 hPa | 0 mm | - | 513 W/m² | - |
| 1788467324 | 38.89° C | 24% | 1009.5 hPa | 0 mm | - | 519 W/m² | - |
| 1788467077 | 38.89° C | 24% | 1009.8 hPa | 0 mm | - | 526 W/m² | - |
| 1788467024 | 38.89° C | 24% | 1009.8 hPa | 0 mm | - | 526 W/m² | - |
| 1788466725 | 38.89° C | 22% | 1009.5 hPa | 0 mm | - | 533 W/m² | - |
| 1788466425 | 38.89° C | 23% | 1009.8 hPa | 0 mm | - | 509 W/m² | - |
| 1788466124 | 38.89° C | 21% | 1009.8 hPa | 0 mm | - | 516 W/m² | - |
| 1788465826 | 38.89° C | 22% | 1009.8 hPa | 0 mm | - | 520 W/m² | - |
* Rain latest hour (hover to see other rain measurements)
** Current wind speed in m/s (hover to see current wind gust speed)